Location: Sweetwater (historical)
(38.4624°N, 119.1749°W)
Time: 13:30:36
(UTC+00:00)

USA 267 - Pass Details

Date: 13 August 2020
Orbit: 1102 x 1106 km, 123.0° (Epoch: 18 September)

Event Time Altitude Azimuth Distance (km) Brightness Sun altitude
Rises 11:58:59 0° 120° (ESE) 3,909 6.6 -13.4°
Reaches altitude 10° 12:01:29 10° 117° (ESE) 2,953 6.0 -13.0°
Maximum altitude 12:07:53 61° 38° (NE) 1,237 3.9 -11.9°
Drops below altitude 10° 12:14:18 10° 321° (NW) 2,964 5.4 -10.8°
Sets 12:16:49 0° 318° (NW) 3,925 6.0 -10.3°
